SV4RJA-13 Weather Reports


time (UTC)temp
F
wind
direction
speed
knots
gust
knots
rain 1hr
in
rain 24hr
in
rain mn
in
humidity
%
barometer
mb
20260906083912 93 0.0 0.0 0.00 0.00 0.00 42 1018.2
20260906082912 94 0.0 0.0 0.00 0.00 0.00 40 1017.9
20260906081913 96 0.0 0.0 0.00 0.00 0.00 39 1018.2
20260906080913 98 0.0 0.0 0.00 0.00 0.00 37 1018.3
20260906075913 95 0.0 0.0 0.00 0.00 0.00 35 1018.2
20260906074912 92 0.0 0.0 0.00 0.00 0.00 36 1018.3
20260906073913 89 0.0 0.0 0.00 0.00 0.00 40 1018.1
20260906072912 89 0.0 0.0 0.00 0.00 0.00 40 1018.2
20260906070913 89 0.0 0.0 0.00 0.00 0.00 39 1018.2
20260906065912 89 0.0 0.0 0.00 0.00 0.00 40 1017.9
20260906063913 86 0.0 0.0 0.00 0.00 0.00 42 1017.8
20260906062912 85 0.0 0.0 0.00 0.00 0.00 43 1017.7
20260906060911 85 0.0 0.0 0.00 0.00 0.00 44 1017.6
20260906055912 84 0.0 0.0 0.00 0.00 0.00 44 1017.5
20260906055812 85 0.0 0.0 0.00 0.00 0.00 44 1017.5
20260906055711 84 0.0 0.0 0.00 0.00 0.00 45 1017.5
20260906055611 84 0.0 0.0 0.00 0.00 0.00 45 1017.5
20260906055513 83 0.0 0.0 0.00 0.00 0.00 46 1017.4
20260906055412 83 0.0 0.0 0.00 0.00 0.00 46 1017.5
20260906053411 81 0.0 0.0 0.00 0.00 0.00 49 1017.6
20260906050912 77 0.0 0.0 0.00 0.00 0.00 55 1017.5
20260906045913 75 0.0 0.0 0.00 0.00 0.00 59 1017.3
20260906044912 75 0.0 0.0 0.00 0.00 0.00 59 1016.9
20260906043912 74 0.0 0.0 0.00 0.00 0.00 62 1017.1
20260906042913 73 0.0 0.0 0.00 0.00 0.00 63 1017.0
20260906041912 73 0.0 0.0 0.00 0.00 0.00 66 1016.9
20260906040912 72 0.0 0.0 0.00 0.00 0.00 67 1016.9
20260906033911 72 0.0 0.0 0.00 0.00 0.00 62 1016.6
20260906032912 72 0.0 0.0 0.00 0.00 0.00 62 1016.6
20260906031912 72 0.0 0.0 0.00 0.00 0.00 62 1016.7
20260906030911 73 0.0 0.0 0.00 0.00 0.00 63 1016.6
20260906024912 73 0.0 0.0 0.00 0.00 0.00 63 1016.5
20260906022912 74 0.0 0.0 0.00 0.00 0.00 62 1016.4
20260906021912 74 0.0 0.0 0.00 0.00 0.00 60 1016.4
20260906020912 74 0.0 0.0 0.00 0.00 0.00 61 1016.4
20260906015912 74 0.0 0.0 0.00 0.00 0.00 61 1016.3
20260906014912 74 0.0 0.0 0.00 0.00 0.00 61 1016.3
20260906012913 74 0.0 0.0 0.00 0.00 0.00 61 1016.2
20260906011912 74 0.0 0.0 0.00 0.00 0.00 61 1016.3
20260906010911 74 0.0 0.0 0.00 0.00 0.00 63 1016.4
20260906004912 72 0.0 0.0 0.00 0.00 0.00 67 1016.3
20260906003913 73 0.0 0.0 0.00 0.00 0.00 61 1016.3
20260906002912 74 0.0 0.0 0.00 0.00 0.00 62 1016.2
20260906001913 73 0.0 0.0 0.00 0.00 0.00 64 1016.3
20260906000912 74 0.0 0.0 0.00 0.00 0.00 67 1016.4
20260905235913 75 0.0 0.0 0.00 0.00 0.00 67 1016.4
20260905234911 75 0.0 0.0 0.00 0.00 0.00 68 1016.6
20260905232912 74 0.0 0.0 0.00 0.00 0.00 72 1016.5
20260905231912 74 0.0 0.0 0.00 0.00 0.00 73 1016.5
20260905225913 74 0.0 0.0 0.00 0.00 0.00 72 1016.8
20260905224912 74 0.0 0.0 0.00 0.00 0.00 71 1016.8
20260905222913 75 0.0 0.0 0.00 0.00 0.00 69 1016.7
20260905221912 74 0.0 0.0 0.00 0.00 0.00 68 1016.9
20260905215912 75 0.0 0.0 0.00 0.00 0.00 68 1016.9
20260905214913 75 0.0 0.0 0.00 0.00 0.00 67 1016.8
20260905213912 76 0.0 0.0 0.00 0.00 0.00 63 1017.0
20260905212912 77 0.0 0.0 0.00 0.00 0.00 63 1017.0
20260905211913 77 0.0 0.0 0.00 0.00 0.00 63 1016.9
20260905210913 77 0.0 0.0 0.00 0.00 0.00 63 1017.0
20260905205913 76 0.0 0.0 0.00 0.00 0.00 64 1017.1
20260905204912 76 0.0 0.0 0.00 0.00 0.00 66 1017.0
20260905203913 77 0.0 0.0 0.00 0.00 0.00 64 1017.0
20260905202912 77 0.0 0.0 0.00 0.00 0.00 62 1017.0
20260905200912 77 0.0 0.0 0.00 0.00 0.00 60 1017.2
20260905195911 80 0.0 0.0 0.00 0.00 0.00 59 1017.3
20260905194911 80 0.0 0.0 0.00 0.00 0.00 61 1017.2
20260905193911 80 0.0 0.0 0.00 0.00 0.00 61 1017.3
20260905191913 79 0.0 0.0 0.00 0.00 0.00 57 1017.2
20260905190913 81 0.0 0.0 0.00 0.00 0.00 56 1017.1
20260905185913 82 0.0 0.0 0.00 0.00 0.00 58 1017.1
20260905184911 83 0.0 0.0 0.00 0.00 0.00 60 1017.0
20260905182912 84 0.0 0.0 0.00 0.00 0.00 67 1016.9
20260905181912 85 0.0 0.0 0.00 0.00 0.00 66 1016.8
20260905180912 85 0.0 0.0 0.00 0.00 0.00 60 1016.7
20260905175912 85 0.0 0.0 0.00 0.00 0.00 56 1016.6
20260905174912 85 0.0 0.0 0.00 0.00 0.00 54 1016.5
20260905173912 85 0.0 0.0 0.00 0.00 0.00 53 1016.3
20260905172912 85 0.0 0.0 0.00 0.00 0.00 53 1016.4
20260905171913 86 0.0 0.0 0.00 0.00 0.00 50 1016.2
20260905170912 86 0.0 0.0 0.00 0.00 0.00 49 1016.1
20260905164911 87 0.0 0.0 0.00 0.00 0.00 48 1015.9
20260905162913 88 0.0 0.0 0.00 0.00 0.00 46 1015.9
20260905161912 89 0.0 0.0 0.00 0.00 0.00 47 1015.9
20260905160912 89 0.0 0.0 0.00 0.00 0.00 44 1016.0
20260905155913 90 0.0 0.0 0.00 0.00 0.00 45 1016.0
20260905154912 90 0.0 0.0 0.00 0.00 0.00 45 1016.0
20260905153912 90 0.0 0.0 0.00 0.00 0.00 45 1015.9
20260905151912 90 0.0 0.0 0.00 0.00 0.00 46 1016.0
20260905145912 91 0.0 0.0 0.00 0.00 0.00 44 1016.0
20260905144912 92 0.0 0.0 0.00 0.00 0.00 41 1016.0
20260905143912 92 0.0 0.0 0.00 0.00 0.00 41 1016.1
20260905142911 91 0.0 0.0 0.00 0.00 0.00 41 1016.2
20260905141912 91 0.0 0.0 0.00 0.00 0.00 44 1016.3
20260905140913 91 0.0 0.0 0.00 0.00 0.00 45 1016.3
20260905135912 92 0.0 0.0 0.00 0.00 0.00 41 1016.3
20260905133912 92 0.0 0.0 0.00 0.00 0.00 44 1016.4
20260905132912 92 0.0 0.0 0.00 0.00 0.00 46 1016.5
20260905131913 92 0.0 0.0 0.00 0.00 0.00 45 1016.6
20260905130913 91 0.0 0.0 0.00 0.00 0.00 43 1016.5
20260905125913 92 0.0 0.0 0.00 0.00 0.00 43 1016.6
20260905124912 91 0.0 0.0 0.00 0.00 0.00 42 1016.8
20260905123913 91 0.0 0.0 0.00 0.00 0.00 36 1016.8
20260905122912 91 0.0 0.0 0.00 0.00 0.00 42 1016.9
20260905121912 91 0.0 0.0 0.00 0.00 0.00 42 1017.0
20260905120913 91 0.0 0.0 0.00 0.00 0.00 37 1017.2
20260905115912 91 0.0 0.0 0.00 0.00 0.00 46 1017.4
20260905114913 91 0.0 0.0 0.00 0.00 0.00 42 1017.5
20260905113913 91 0.0 0.0 0.00 0.00 0.00 43 1017.5
20260905112912 92 0.0 0.0 0.00 0.00 0.00 41 1017.5
20260905111912 92 0.0 0.0 0.00 0.00 0.00 39 1017.4
20260905105913 90 0.0 0.0 0.00 0.00 0.00 51 1017.1
20260905104912 91 0.0 0.0 0.00 0.00 0.00 46 1017.6
20260905103913 91 0.0 0.0 0.00 0.00 0.00 46 1017.8
20260905102913 91 0.0 0.0 0.00 0.00 0.00 47 1017.7
20260905101912 90 0.0 0.0 0.00 0.00 0.00 48 1017.6
20260905100913 91 0.0 0.0 0.00 0.00 0.00 48 1018.0
20260905095912 91 0.0 0.0 0.00 0.00 0.00 48 1018.0
20260905094913 91 0.0 0.0 0.00 0.00 0.00 48 1018.2
20260905093913 90 0.0 0.0 0.00 0.00 0.00 49 1018.1
20260905092912 91 0.0 0.0 0.00 0.00 0.00 46 1018.3
20260905091912 92 0.0 0.0 0.00 0.00 0.00 46 1018.3
20260905090913 93 0.0 0.0 0.00 0.00 0.00 42 1018.4
20260905085912 93 0.0 0.0 0.00 0.00 0.00 42 1018.3